• In Hungary
  • List of Countries
  • For 7 days
  • Water Temperature
  • Satellite Maps
  • Weather Map
  • News
  • Weather Widgets
  • user-avatar
    Login

    Hourly Weather Djibouti

    Today, 21 September, Friday

    Time Temperature Precipitation Wind Pressure Humidity
    00:00 +35°C° 0 mm 2 mps 754 mmHg 63%
    01:00 +35°C° 0 mm 2 mps 753 mmHg 65%
    02:00 +34°C° 0 mm 2 mps 753 mmHg 67%
    03:00 +34°C° 0 mm 2 mps 753 mmHg 68%
    04:00 +34°C° 0 mm 2 mps 753 mmHg 71%
    05:00 +34°C° 0 mm 2 mps 753 mmHg 73%
    06:00 +32°C° 0 mm 2 mps 754 mmHg 75%
    07:00 +34°C° 0 mm 2 mps 754 mmHg 71%
    08:00 +35°C° 0 mm 2 mps 755 mmHg 67%
    09:00 +36°C° 0 mm 3 mps 755 mmHg 63%
    10:00 +37°C° 0 mm 3 mps 755 mmHg 57%
    11:00 +38°C° 0 mm 3 mps 754 mmHg 51%
    12:00 +39°C° 0 mm 3 mps 754 mmHg 45%
    13:00 +40°C° 0 mm 3 mps 754 mmHg 42%
    14:00 +41°C° 0 mm 4 mps 753 mmHg 39%
    15:00 +42°C° 0 mm 4 mps 752 mmHg 37%
    16:00 +40°C° 0 mm 3 mps 752 mmHg 37%
    17:00 +40°C° 0 mm 3 mps 752 mmHg 37%
    18:00 +39°C° 0 mm 2 mps 752 mmHg 38%
    19:00 +38°C° 0 mm 2 mps 753 mmHg 39%
    20:00 +38°C° 0 mm 2 mps 753 mmHg 41%
    21:00 +37°C° 0 mm 3 mps 753 mmHg 43%
    22:00 +37°C° 0 mm 2 mps 753 mmHg 46%
    23:00 +36°C° 0 mm 2 mps 754 mmHg 49%

    Tomorrow, 22 September, Saturday

    Time Temperature Precipitation Wind Pressure Humidity
    00:00 +35°C° 0 mm 1 mps 754 mmHg 52%
    01:00 +34°C° 0 mm 1 mps 754 mmHg 54%
    02:00 +34°C° 0 mm 1 mps 754 mmHg 56%
    03:00 +33°C° 0 mm 1 mps 753 mmHg 58%
    04:00 +33°C° 0 mm 1 mps 754 mmHg 60%
    05:00 +34°C° 0 mm 2 mps 754 mmHg 62%
    06:00 +34°C° 0 mm 2 mps 754 mmHg 63%
    07:00 +34°C° 0 mm 2 mps 755 mmHg 59%
    08:00 +35°C° 0 mm 2 mps 755 mmHg 54%
    09:00 +36°C° 0 mm 2 mps 756 mmHg 50%
    10:00 +38°C° 0 mm 2 mps 756 mmHg 44%
    11:00 +39°C° 0 mm 3 mps 755 mmHg 38%
    12:00 +42°C° 0 mm 3 mps 755 mmHg 32%
    13:00 +42°C° 0 mm 4 mps 754 mmHg 33%
    14:00 +42°C° 0 mm 4 mps 753 mmHg 34%
    15:00 +42°C° 0 mm 5 mps 753 mmHg 34%
    16:00 +41°C° 0 mm 5 mps 753 mmHg 41%
    17:00 +39°C° 0 mm 5 mps 753 mmHg 47%
    18:00 +38°C° 0 mm 6 mps 753 mmHg 53%
    19:00 +36°C° 0 mm 5 mps 753 mmHg 58%
    20:00 +35°C° 0 mm 4 mps 754 mmHg 63%
    21:00 +35°C° 0 mm 3 mps 755 mmHg 68%
    22:00 +34°C° 0 mm 3 mps 755 mmHg 69%
    23:00 +34°C° 0 mm 3 mps 755 mmHg 69%

    Day after tomorrow, 23 September, Sunday

    Time Temperature Precipitation Wind Pressure Humidity
    00:00 +34°C° 0 mm 3 mps 755 mmHg 69%
    01:00 +34°C° 0 mm 2 mps 755 mmHg 71%
    02:00 +32°C° 0 mm 2 mps 755 mmHg 72%
    03:00 +32°C° 0 mm 2 mps 755 mmHg 73%
    04:00 +32°C° 0 mm 2 mps 755 mmHg 74%
    05:00 +32°C° 0 mm 2 mps 755 mmHg 74%
    06:00 +32°C° 0 mm 1 mps 755 mmHg 74%
    07:00 +34°C° 0 mm 2 mps 756 mmHg 66%
    08:00 +35°C° 0 mm 2 mps 756 mmHg 58%
    09:00 +36°C° 0 mm 2 mps 757 mmHg 50%
    10:00 +37°C° 0 mm 3 mps 756 mmHg 45%
    11:00 +38°C° 0 mm 4 mps 756 mmHg 41%
    12:00 +41°C° 0 mm 4 mps 755 mmHg 36%
    13:00 +41°C° 0 mm 4 mps 755 mmHg 36%
    14:00 +41°C° 0 mm 4 mps 754 mmHg 37%
    15:00 +41°C° 0 mm 4 mps 753 mmHg 37%
    16:00 +40°C° 0 mm 4 mps 753 mmHg 39%
    17:00 +38°C° 0 mm 4 mps 753 mmHg 41%
    18:00 +37°C° 0 mm 3 mps 753 mmHg 43%
    19:00 +37°C° 0 mm 3 mps 754 mmHg 46%
    20:00 +36°C° 0 mm 3 mps 754 mmHg 50%
    21:00 +35°C° 0 mm 2 mps 755 mmHg 53%
    22:00 +35°C° 0 mm 2 mps 755 mmHg 55%
    23:00 +34°C° 0 mm 2 mps 755 mmHg 57%

    24 September, Monday

    Time Temperature Precipitation Wind Pressure Humidity
    00:00 +34°C° 0 mm 2 mps 755 mmHg 59%
    01:00 +34°C° 0 mm 2 mps 754 mmHg 59%
    02:00 +32°C° 0 mm 1 mps 754 mmHg 60%
    03:00 +32°C° 0 mm 1 mps 754 mmHg 60%
    04:00 +32°C° 0 mm 1 mps 754 mmHg 59%
    05:00 +32°C° 0 mm 1 mps 754 mmHg 59%
    06:00 +32°C° 0 mm 1 mps 754 mmHg 59%
    07:00 +34°C° 0 mm 2 mps 755 mmHg 52%
    08:00 +35°C° 0 mm 2 mps 755 mmHg 46%
    09:00 +37°C° 0 mm 3 mps 756 mmHg 40%
    10:00 +38°C° 0 mm 3 mps 755 mmHg 36%
    11:00 +39°C° 0 mm 3 mps 754 mmHg 33%
    12:00 +40°C° 0 mm 3 mps 754 mmHg 29%
    13:00 +42°C° 0 mm 4 mps 753 mmHg 29%
    14:00 +42°C° 0 mm 4 mps 752 mmHg 28%
    15:00 +42°C° 0 mm 5 mps 751 mmHg 28%
    16:00 +41°C° 0 mm 4 mps 751 mmHg 30%
    17:00 +40°C° 0 mm 4 mps 752 mmHg 32%
    18:00 +40°C° 0 mm 4 mps 752 mmHg 33%
    19:00 +38°C° 0 mm 3 mps 752 mmHg 37%
    20:00 +37°C° 0 mm 3 mps 753 mmHg 41%
    21:00 +36°C° 0 mm 2 mps 754 mmHg 44%
    22:00 +36°C° 0 mm 2 mps 753 mmHg 46%
    23:00 +35°C° 0 mm 2 mps 753 mmHg 48%

    25 September, Tuesday

    Time Temperature Precipitation Wind Pressure Humidity
    00:00 +35°C° 0 mm 2 mps 753 mmHg 49%
    01:00 +35°C° 0 mm 2 mps 753 mmHg 52%
    02:00 +34°C° 0 mm 2 mps 753 mmHg 54%
    03:00 +34°C° 0 mm 3 mps 753 mmHg 57%
    04:00 +32°C° 0 mm 2 mps 753 mmHg 59%
    05:00 +32°C° 0 mm 2 mps 754 mmHg 62%
    06:00 +32°C° 0 mm 2 mps 754 mmHg 65%
    07:00 +34°C° 0 mm 2 mps 755 mmHg 60%
    08:00 +35°C° 0 mm 3 mps 755 mmHg 55%
    09:00 +35°C° 0 mm 3 mps 756 mmHg 50%
    10:00 +36°C° 0 mm 3 mps 755 mmHg 47%
    11:00 +37°C° 0 mm 4 mps 754 mmHg 43%
    12:00 +40°C° 0 mm 4 mps 754 mmHg 40%
    13:00 +40°C° 0 mm 4 mps 753 mmHg 41%
    14:00 +40°C° 0 mm 4 mps 752 mmHg 42%
    15:00 +40°C° 0 mm 4 mps 752 mmHg 43%
    16:00 +39°C° 0 mm 3 mps 752 mmHg 45%
    17:00 +38°C° 0 mm 3 mps 752 mmHg 47%
    18:00 +37°C° 0 mm 3 mps 752 mmHg 50%
    19:00 +37°C° 0 mm 3 mps 753 mmHg 53%
    20:00 +36°C° 0 mm 3 mps 753 mmHg 57%
    21:00 +35°C° 0 mm 3 mps 754 mmHg 61%
    22:00 +35°C° 0 mm 3 mps 754 mmHg 64%
    23:00 +34°C° 0 mm 3 mps 753 mmHg 67%

    26 September, Wednesday

    Time Temperature Precipitation Wind Pressure Humidity
    00:00 +34°C° 0 mm 2 mps 753 mmHg 70%
    01:00 +34°C° 0 mm 2 mps 753 mmHg 72%
    02:00 +32°C° 0 mm 2 mps 753 mmHg 73%
    03:00 +32°C° 0 mm 2 mps 753 mmHg 74%
    04:00 +32°C° 0.1 mm 2 mps 753 mmHg 75%
    05:00 +33°C° 0.1 mm 3 mps 754 mmHg 77%
    06:00 +31°C° 0.1 mm 3 mps 754 mmHg 78%
    07:00 +33°C° 0 mm 3 mps 755 mmHg 74%
    08:00 +34°C° 0 mm 3 mps 755 mmHg 70%
    09:00 +35°C° 0 mm 3 mps 756 mmHg 66%
    10:00 +36°C° 0 mm 3 mps 755 mmHg 61%
    11:00 +37°C° 0 mm 3 mps 754 mmHg 55%
    12:00 +38°C° 0 mm 4 mps 754 mmHg 50%
    13:00 +40°C° 0 mm 4 mps 753 mmHg 50%
    14:00 +40°C° 0 mm 4 mps 752 mmHg 50%
    15:00 +40°C° 0 mm 4 mps 751 mmHg 50%
    16:00 +40°C° 0 mm 4 mps 751 mmHg 52%
    17:00 +38°C° 0 mm 3 mps 752 mmHg 55%
    18:00 +38°C° 0 mm 3 mps 752 mmHg 57%
    19:00 +37°C° 0.1 mm 3 mps 752 mmHg 62%
    20:00 +36°C° 0.1 mm 3 mps 753 mmHg 66%
    21:00 +35°C° 0.1 mm 4 mps 753 mmHg 70%
    22:00 +34°C° 0.1 mm 3 mps 753 mmHg 73%
    23:00 +34°C° 0.1 mm 3 mps 753 mmHg 76%
    Show more